C/2021 S3 ( PanSTARRS )

Japanese version
Home page
Updated on August 6, 2022

---------------------------------------------------------------------

* Profile

Discovery Date September 24, 2021
Magnitude 20.1 mag
Discoverer Pan-STARRS 2 telescope (Haleakala)

* Pictures

* Orbital Elements

Epoch 2022 Jan. 21.0 TT = JDT 2459600.5
T 2024 Feb. 14.81628 TT                                 Rudenko
q   1.3184651            (2000.0)            P               Q
z  +0.0002162      Peri.    6.91096     -0.77012174     +0.39968307
 +/-0.0000333      Node   215.64740     -0.61846237     -0.65874323
e   0.9997149      Incl.   58.54576     -0.15625878     +0.63742513
From 135 observations 2021 Sept. 24-2022 Apr. 30, mean residual 0".5.

* Finding Charts

* Magnitudes Graph

        m1 = 5.0 + 5 log d + 10.0 log r

---------------------------------------------------------------------

The orbital elements are published on M.P.E.C. 2022-J42.
The charts are made with StellaNavigator Ver.10 (AstroArts).
The magnitudes graphs are made with Comet for Windows.

---------------------------------------------------------------------

Copyright(C) Seiichi Yoshida (comet@aerith.net). All rights reserved.